Regional Weather Roundup
Issued by NWS Wakefield, VA

Home | Current Version | Previous Version | Graphics & Text | Print | Product List | Glossary On
Versions: 1 2 3 4 5 6 7 8 9 10 11 12 13 14 15 16 17 18 19 20 21 22 23 24 25 26 27
000
ASUS41 KAKQ 221015
RWRAKQ

REGIONAL WEATHER ROUNDUP
NATIONAL WEATHER SERVICE WAKEFIELD VA
500 AM EST THU FEB 22 2018

Note: "fair" indicates few or no clouds below 12,000 feet with no
significant weather and/or obstructions to visibility. * = Denotes
station may not report precipitation (e.g., rain,snow,etc.),
thunder or fog.

VAZ042-051-052>054-056-221100-
NORTHERN VIRGINIA

CITY           SKY/WX    TMP DP  RH WIND       PRES   REMARKS
WASH NATIONAL  CLOUDY    58  42  55 NE14      30.43R
DULLES         CLOUDY    56  50  80 N9        30.43R
FORT BELVOIR   CLOUDY    60  44  56 NE3       30.42R
QUANTICO       CLOUDY    60  55  83 NE13G21   30.41R
FREDERICKSBRG* MOCLDY    62  62 100 CALM      30.38S
STAFFORD*      CLOUDY    65  62  91 NE7       30.43S
WARRENTON      CLOUDY    58  49  72 NW7G21    30.41R
CULPEPER*      CLOUDY    59  51  75 NE7       30.42R
MANASSAS*      CLOUDY    57  51  80 N10       30.42R
LEESBURG*      CLOUDY    54  45  71 NE9       30.45S
WINCHESTER     CLOUDY    50  46  87 N6        30.46S
FRONT ROYAL*   CLOUDY    52  50  93 N6        30.43R
LURAY*         CLOUDY    55  54  94 N9G18     30.40S
$$

VAZ048-049-060>072-079>083-221100-
CENTRAL AND SOUTH CENTRAL VIRGINIA

CITY           SKY/WX    TMP DP  RH WIND       PRES   REMARKS
RICHMOND       FAIR      60  60 100 SE5       30.39S FOG
CHESTERFIELD*  LGT RAIN  58  57  97 S3        30.39S VSB 1/4
PETERSBURG*    NOT AVBL
HANOVER        FAIR      61  60  97 S5        30.39F
TAPPAHANNOCK*  FAIR      63  62  96 CALM      30.39S
QUINTON*         N/A     59  59 100 CALM      30.39S FOG
CHARLOTTSVILLE CLOUDY    64  57  78 NE8       30.38S
GORDONSVILLE*  CLOUDY    62  58  86 N5        30.39R
ORANGE*        CLOUDY    61  55  82 CALM      30.40R
LOUISA*        CLOUDY    60  59  97 CALM      30.43R
BUMPASS*       CLOUDY    61  59  95 CALM      30.38S
FARMVILLE*     FOG      N/A N/A N/A S3        30.37S VSB 3/4
CREWE*         FAIR      60  60 100 S3        30.38S
FORT PICKETT*    N/A    N/A N/A N/A CALM      30.40R VSB 1/2
CHASE CITY*    FAIR      60  60 100 SE3       30.40R
CLARKSVILLE*   FAIR      61  61 100 S3        30.39S
SOUTH HILL*    CLOUDY    58  58 100 S5        30.46S VSB 1/4
LAWRENCEVILLE* CLOUDY    58  57  97 CALM      30.40S VSB 1/4
EMPORIA*       FOG       54  54 100 SE5       30.43S VSB 1/4
$$

VAZ088>098-221100-
SOUTHEAST VIRGINIA

CITY           SKY/WX    TMP DP  RH WIND       PRES   REMARKS
NORFOLK        FAIR      63  62  97 SW10      30.42S
VIRGINIA BEACH FAIR      65  61  87 SW9       30.42R
NORFOLK NAVAL  NOT AVBL
WEST POINT*    MOCLDY    63  61  93 S6        30.41F
SALUDA*        FAIR      63  63 100 SW7       30.39S
NEWPORT NEWS   MOCLDY    60  59  96 S5        30.42S
LANGLEY AFB    FAIR      63  63 100 SW10      30.42R
FORT EUSTIS    FAIR      61  60  97 SE5       30.39S
WILLIAMSBURG*  FAIR      61  61 100 S7        30.42S
HR EXEC AP*    FAIR      63  62  97 SW5       30.43S
FRANKLIN*        N/A     60  59  98 S3        30.43S FOG
US460-WAKEFLD  FAIR      62  62 100 S3        30.41S
$$

VAZ020-022-025-037-045-221100-
WEST CENTRAL AND SOUTHWEST VIRGINIA

CITY           SKY/WX    TMP DP  RH WIND       PRES   REMARKS
STAUNTON*      CLOUDY    58  56  93 CALM      30.40S
WAYNESBORO*    CLOUDY    57  57 100 CALM      30.39R
HOT SPRINGS VA CLOUDY    58  58 100 S9G16     30.42F
LYNCHBURG      CLOUDY    63  61  93 SW6       30.38S
DANVILLE       FAIR      60  60 100 VRB3      30.39S
SOUTH BOSTON*  FAIR      61  60  96 CALM      30.40R
MARTINSVILLE   CLOUDY    64  62  94 S5        30.41S
ROANOKE        FAIR      59  58  96 SE3       30.38F
BLACKSBURG     FAIR      62  60  93 S3        30.41F
DUBLIN*        CLOUDY    64  61  93 S5        30.39F
MARION*        FAIR      58  54  84 CALM      30.39F
HILLSVILLE*    CLOUDY    62  61  95 S14G20    30.39S
RICHLANDS*     FAIR      64  55  70 S12G17    30.34S
WISE*          FAIR      63  55  77 S5        30.35R
ABINGDON*      FAIR      58  56  91 CALM      30.34R
$$

MDZ021>025-VAZ099-100-221100-
SOUTHERN MARYLAND AND THE DELMARVA PENINSULA

CITY           SKY/WX    TMP DP  RH WIND       PRES   REMARKS
PATUXENT RIVER MOCLDY    56  52  86 NW8       30.40S
BAY BRIDGE APT CLOUDY    48  43  81 N7        30.44R
LEONARDTOWN    FAIR      55  48  76 CALM      30.43S
DOVER          CLOUDY    56  44  65 N9        30.44R
GEORGETOWN     CLOUDY    58  53  84 NE10      30.44R
EASTON         CLOUDY    60  50  69 E8        30.46R
CAMBRIDGE      CLOUDY    61  57  88 NE8       30.41R
SALISBURY      CLOUDY    61  60  97 S3        30.41R
OCEAN CITY     CLOUDY    57  56  96 N7        30.42R
WALLOPS ISLAND FAIR     N/A N/A N/A CALM      30.40F
ACCOMACK*      FAIR      65  62  91 SW7       30.40S
$$

NCZ012>017-030>032-221100-
NORTH CENTRAL AND EASTERN NORTH CAROLINA

CITY           SKY/WX    TMP DP  RH WIND       PRES   REMARKS
ROANOKE RAPIDS PTSUNNY   63  63 100 S8        30.42S
RALEIGH        MOCLDY    65  64  97 SW13      30.42S
ELIZABETH CITY FAIR      61  61 100 SW6       30.44S
AHOSKIE*       CLOUDY    62  62 100 S5        30.43S
EDENTON*       FAIR      64  63  97 SW6       30.45S
CURRITUCK*     FAIR      60  59  97 SW3       30.45S
KILL DEVIL HLS MOCLDY   N/A N/A N/A CALM      30.45S HAZE
MANTEO         FOG       59  59 100 SW6       30.46F VSB 1/2
CAPE HATTERAS  MOCLDY    58  58 100 CALM      30.47S FOG
TARBORO*       NOT AVBL
GOLDSBORO      CLOUDY    64  64 100 S5        30.42F FOG
WASHINGTON     CLOUDY    64  63  97 S3        30.45S FOG
GREENVILLE     CLOUDY    64  64 100 SW7       30.44S
NEW BERN       FOG       60  60 100 S3        30.47S VSB 1/4
WILMINGTON     FOG       59  59 100 CALM      30.46R VSB 1/2
$$

VAZ048-221100-
ELSEWHERE

CITY           SKY/WX    TMP DP  RH WIND       PRES   REMARKS
HARRISBURG PA  LGT RAIN  46  34  62 N3        30.50R
BALTIMORE      CLOUDY    54  37  52 NE14      30.44R
ANNAPOLIS      CLOUDY    56  42  59 N8        30.43R
ANDREWS AFB    CLOUDY    57  43  61 NE8       30.42R
PHILADELPHIA   CLOUDY    53  33  46 NE15G21   30.47S
HENDERSON NC   FAIR      60  59  97 S9        30.41R
GREENSBORO     CLOUDY    63  63 100 S10       30.40S
ROCKY MOUNT    CLOUDY    65  64  97 S8        30.43S
$$

VAZ100-221100-
MARINE

STATION/POSITION TIME  TEMP    WIND        PRES    WAVE   SWELL
                       AIR SEA DIR/SP/G            HT/PER HT/PER
                 (UTC) (F)     (DEG/KT/KT) (MB)    (FT/S) (FT/S)
BRANDYWINE LGT   0936   54      60/  6/  7 1031.3R
CAPE MAY NJ      0936   56 44   70/  9/ 16 1030.1R
LEWES DE         0936   50 45  360/  5/  7 1030.7R
15NM E FENWICK I 0950   45 42   50/  2/  4 1030.5R   2/ 6   2/ 6
OCEAN-CITY-INLET 0936   50 40   CALM  /  1 1030.4R
WACHAPREAGUE VA  0936   57 59  210/  4/  5 1029.7S
THOMAS POINT MD  1000   51 41   20/  5/ 15   N/A
COVE POINT MD    0936   49     340/ 19/ 23 1030.2S
SOLOMONS ISLAND  0936   57 42  330/  5/  7 1029.4R
BISHOPS HEAD MD  0936   51 53  140/  6/  7 1029.7R
PINEY POINT MD   0942           50/  7/  8   N/A
CAMBRIDGE MD     0936   58 48              1030.5R
LEWISETTA VA     0936   53 53   80/  2/  3 1029.3R
RAPPAHANNOCK LGT 0942          190/ 15/ 16 1030.2R
YORK RVR RNG VA  0942   63     240/ 10/ 12 1030.2S
YORKTOWN VA      0942   64 47  220/ 11/ 14 1029.2F
DOMINION TERM VA 0942   60     180/  2/  3 1030.4R
KIPTOPEKE VA     0942      45  150/  4/  5   N/A
CAPE HENRY VA    0942   66     220/  8/ 11   N/A
S CRANEY ISL VA  0942   62     200/  5/  7 1030.0R
CAPE HENRY BUOY  1000      45                N/A     2/13   2/13
CAPE CHARLES BUO 0951      46                N/A     2/13   2/13
64NM E OF VA BCH 0950   54 50  220/ 10/ 12 1031.5R   3/14   3/14
DUCK PIER NC     0942   62 44  200/  7/  8 1030.7R
44100 DUCK FRF   0945      47                N/A     3/13   2/13
44056 DUCK FRF   1000      47                N/A     3/15   2/15
OREGON INLET NC  0942   59 63  200/  7/  8 1031.4R
HATTERAS NC      0942   63 60  250/  4/  4 1031.5R
DIAMOND SHLS NC  0950   71 68  200/ 12/ 14 1031.9R   4/13   3/13
CAPE LOOKOUT NC  1000          220/  7/  8 1031.9R
$$




USA.gov is the U.S. government's official web portal to all federal, state and local government web resources and services.